Terminal Aerodrome Forecast
Issued by NWS

Home | Current Version | Previous Version | Graphics & Text | Print | Product List | Glossary On
Versions: 1 2 3 4 5 6 7 8 9 10 11 12 13 14 15 16 17 18 19 20 21 22
000
FTUS43 KOAX 020520
TAFCDR
TAF
KCDR 020520Z 0206/0306 VRB05KT P6SM SCT070 BKN200
     FM020900 16009KT P6SM SCT060 SCT200
     FM030400 03010KT 5SM BR SCT007 OVC015=

USA.gov is the U.S. government's official web portal to all federal, state and local government web resources and services.